Tracking 17784 objects as of 24-July-2016
HD Live streaming from Space Station
objects crossing your sky now

COSMOS 1803

Track COSMOS 1803 now!
10-day predictions
COSMOS 1803 is classified as:


NORAD ID: 17177
Int'l Code: 1986-094A
Perigee: 1,503.6 km
Apogee: 1,510.7 km
Inclination: 82.6 °
Period: 116.0 minutes
Semi major axis: 7878 km
RCS: 10.2434 m2 (large)
Launch date: December 2, 1986
Source: Commonwealth of Independent States (former USSR) (CIS)
Launch site: PLESETSK MISSILE AND SPACE COMPLEX (PKMTR)
Your satellite tracking list
Your tracking list is empty





NASA's NSSDC Master Catalog

Two Line Element Set (TLE):
1 17177U 86094A   16205.70771661 +.00000007 +00000-0 -21340-4 0  9991
2 17177 082.6045 061.8653 0004492 055.5528 007.5915 12.41552253343296
Source of the keplerian elements: AFSPC

N2YO: 934